sat.trackr.live / text

‹ back to catalog

STARLINK-34536

NORAD 64748 · 2025-144AA

PAYLOAD ACTIVE UNKNOWN

§ Identity

Operator
Country
US
Launch date
2025-07-02
Launch site
AFETR
Launch vehicle
Mass (kg)
RCS (m²)

Purposes: comms

External: N2YO · Heavens-Above · Gunter

§ Orbital elements

Epoch: 2026-09-20T12:58:41.875680Z

Period
93.85 min
Inclination
53.1601°
Eccentricity
0.0000791
Mean motion
15.34415112 rev/d
Perigee alt
462.1 km
Apogee alt
463.2 km
Semi-major
6,840.8 km
B*
5.3925e-4
RAAN
355.3221°
Arg perigee
75.9959°
Mean anomaly
284.1132°
Rev number
6,955

§ Raw data

STARLINK-345361 64748U 25144AA  26263.54076245  .00017896  00000+0  53925-3 0  99942 64748  53.1601 355.3221 0000791  75.9959 284.1132 15.34415112 69552

JSON: /api/v1/satellites/64748 · /tle

For live sub-satellite position, see the globe view (requires WebGL).

§ Visibility from observer

Set your observer location to see the next 7 days of passes ≥ 10°. The values pass through the URL so the page stays shareable.

No JS? Fill the form by hand. The geolocation button needs JavaScript.